Content
SEND FEEDBACK

Daily
Averages
Monthly
Summary
United States of America

UMATAC, GUAM


Home > North America > United States > Guam
Elevation: 190 feet     Latitude: 13 17N     Longitude: 144 40E

WEATHER
 
SELECT A DAY
Number of Records: 352,517;   Date Range: 1/1/95 - 10/30/14
 
SHARE

PRINT THIS DATA

[ ← Previous Day ]
WEATHER ALMANAC - AUGUST 27, 2014
[ Next Day → ]
[ °C ]   °F
Weather ElementAverageHighLow
Temperature82 °F86.7 °F (12:58 pm)77.7 °F (6:58 am)
Dewpoint75.6 °F77.2 °F (3:58 pm)73.6 °F (3:58 am)
Humidity81.2 %90 % (11:58 pm)71 % (10:58 am)
Barometer29.83 in29.91 in (9:25 am)29.78 in (1:58 pm)
Wind Speed10 mph15 mph (11:36 am)
Wind Gust20.7 mph (5:43 am)
Weather ElementAverage
Visibility10 mi
Wind DirectionE (93.5 °)

Weather ElementTotal
Precipitation---
Cooling Degree Days17.2 (Base 65)
Growing Degree Days32.2 (Base 50)
Averaged from 37 records on August 27, 2014
WEATHER CONDITIONS BREAKOUT
WIND DIRECTION BREAKOUT
WEATHER BY HOUR - AUGUST 27, 2014
[ °C ]   °F
Local TimeTemperatureDewpointHumidityBarometerVisibilityWind DirectionWind SpeedGust SpeedPrecipitationEventsConditions
12:58 AM79.7 °F75.9 °F88 %29.81 in10.0 miEast (90°)6.9 mphScattered Clouds
1:58 AM79.5 °F75.0 °F86 %29.79 in10.0 miEast (100°)5.8 mphScattered Clouds
2:23 AM78.8 °F75.2 °F89 %29.81 in10.0 miESE (110°)5.8 mphScattered Clouds
2:58 AM79.3 °F75.6 °F88 %29.78 in10.0 miESE (120°)5.8 mphScattered Clouds
3:58 AM79.7 °F75.6 °F87 %29.78 in10.0 miESE (110°)5.8 mphScattered Clouds
4:58 AM77.7 °F73.6 °F87 %29.78 in10.0 miENE (70°)6.9 mphPartly Cloudy
5:58 AM78.4 °F75.4 °F90 %29.81 in10.0 miEast (90°)8.1 mphScattered Clouds
6:03 AM78.8 °F75.2 °F89 %29.83 in10.0 miEast (90°)6.9 mphMostly Cloudy
6:08 AM78.8 °F75.2 °F89 %29.83 in10.0 miEast (100°)6.9 mphMostly Cloudy
6:38 AM80.6 °F75.2 °F84 %29.84 in10.0 miEast (90°)9.2 mphMostly Cloudy
6:43 AM80.6 °F75.2 °F84 %29.84 in10.0 miEast (90°)11.5 mphMostly Cloudy
6:48 AM80.6 °F75.2 °F84 %29.84 in10.0 miEast (100°)8.1 mphScattered Clouds
6:58 AM81.0 °F75.0 °F82 %29.81 in10.0 miEast (100°)9.2 mphPartly Cloudy
7:58 AM82.9 °F76.1 °F80 %29.83 in10.0 miEast (100°)10.4 mphScattered Clouds
8:58 AM83.8 °F76.3 °F78 %29.84 in10.0 miESE (110°)10.4 mphClear
9:58 AM85.6 °F77.2 °F76 %29.84 in10.0 miEast (90°)15.0 mphPartly Cloudy
10:58 AM85.3 °F77.0 °F76 %29.83 in10.0 miEast (100°)12.7 mphPartly Cloudy
11:58 AM86.5 °F76.1 °F71 %29.82 in10.0 miEast (100°)12.7 mph20.7 mphPartly Cloudy
12:58 PM86.7 °F77.0 °F73 %29.81 in10.0 miEast (100°)13.8 mphMostly Cloudy
1:28 PM84.2 °F75.2 °F74 %29.83 in10.0 miESE (120°)11.5 mphMostly Cloudy
1:33 PM84.2 °F75.2 °F74 %29.82 in10.0 miESE (110°)11.5 mphScattered Clouds
1:58 PM86.0 °F76.1 °F72 %29.79 in10.0 miESE (110°)13.8 mphScattered Clouds
2:58 PM86.0 °F76.6 °F73 %29.79 in10.0 miESE (110°)11.5 mphScattered Clouds
3:58 PM84.9 °F77.0 °F77 %29.78 in10.0 miESE (110°)13.8 mphPartly Cloudy
4:58 PM82.9 °F75.6 °F78 %29.78 in10.0 miEast (80°)12.7 mphScattered Clouds
5:18 PM84.2 °F75.2 °F74 %29.82 in10.0 miEast (80°)9.2 mphMostly Cloudy
5:23 PM84.2 °F75.2 °F74 %29.82 in10.0 miEast (80°)10.4 mphMostly Cloudy
5:43 PM82.4 °F75.2 °F79 %29.83 in10.0 miEast (100°)11.5 mphScattered Clouds
5:58 PM82.4 °F75.2 °F79 %29.81 in10.0 miEast (80°)11.5 mphMostly Cloudy
6:58 PM81.5 °F74.7 °F80 %29.83 in10.0 miEast (90°)10.4 mphPartly Cloudy
7:58 PM81.3 °F75.2 °F82 %29.84 in10.0 miEast (90°)10.4 mphMostly Cloudy
8:58 PM81.1 °F75.6 °F83 %29.89 in10.0 miEast (80°)13.8 mphPartly Cloudy
9:58 PM80.8 °F75.9 °F85 %29.90 in10.0 miENE (70°)10.4 mphMostly Cloudy
10:13 PM80.6 °F75.2 °F84 %29.90 in10.0 miENE (70°)10.4 mphMostly Cloudy
10:18 PM80.6 °F75.2 °F84 %29.91 in10.0 miENE (70°)9.2 mphScattered Clouds
10:58 PM80.6 °F75.2 °F84 %29.89 in10.0 miENE (70°)8.1 mphPartly Cloudy
11:58 PM80.2 °F75.7 °F86 %29.88 in10.0 miEast (80°)8.1 mphScattered Clouds
Hourly data recorded from PGUA, located miles away from Umatac, Guam







STORIES FROM OUR PARTNERS